Location: *
(51.0333°S, 178.4667°E)
Time: 10:32:54
(UTC+00:00)

IGS 5A - Pass Details

Date: 15 November 2019
Orbit: 583 x 589 km, 97.6° (Epoch: 27 September)

Event Time Altitude Azimuth Distance (km) Brightness Sun altitude
Rises 11:01:12 0° 171° (S) 2,860 8.2 -19.7°
Reaches altitude 10° 11:03:26 10° 176° (S) 1,950 7.2 -19.7°
Maximum altitude 11:07:31 49° 250° (WSW) 776 4.2 -19.9°
Enters shadow 11:09:21 28° 309° (NW) 1,117 4.6 -19.9°
